Miscellaneous Local Product
Issued by NWS North Platte, NE

Home | Current Version | Previous Version | Graphics & Text | Print | Product List | Glossary On
Versions: 1 2 3 4 5 6 7 8 9 10 11 12 13 14 15 16 17 18 19 20 21 22 23 24 25 26 27 28 29 30 31 32 33 34 35 36 37 38 39 40 41 42 43 44 45 46 47 48 49 50
348
AXUS43 KLBF 251010
MISLBF


WESTERN AND NORTH CENTRAL NEBRASKA HOURLY WEATHER ROUNDUP
NATIONAL WEATHER SERVICE NORTH PLATTE NE
500 AM CDT WED APR 25 2018

NOTE: "FAIR" INDICATES FEW OR NO CLOUDS BELOW 12,000 FEET WITH NO
SIGNIFICANT WEATHER AND/OR OBSTRUCTIONS TO VISIBILITY.

NOTE: STATIONS NOT REPORTING VARIABLES SUCH AS SKY/WEATHER OR
PRESSURE ARE PROVIDED BY RAWS AND APRS NETWORKS AND ARE NOT UNDER
NATIONAL WEATHER SERVICE QUALITY CONTROL.

...OBSERVATIONS IN AND NEAR THE EASTERN PANHANDLE OF NEBRASKA...

CITY           SKY/WX    TMP DP  RH WIND       PRES   REMARKS
PINE RIDGE     CLEAR     23  21  92 E6        30.35F WCI  16
GORDON         FAIR      29  25  85 W3        30.34F
CHADRON        CLEAR     23  21  92 SW7       30.36F WCI  15
ALLIANCE       CLEAR     23  23 100 W8        30.35F WCI  14
SIDNEY         CLEAR     27  25  92 W7        30.37F WCI  19
CRESCENT LAKE    N/A     34  29  80 W7          N/A  WCI  28
$$

...OBSERVATIONS IN NORTHERN NEBRASKA AND FAR SOUTHERN SOUTH DAKOTA...

CITY           SKY/WX    TMP DP  RH WIND       PRES   REMARKS
WINNER         FAIR      34  29  82 W7        30.34S WCI  28
VALENTINE      PTCLDY    34  30  85 NW9       30.34F WCI  27
AINSWORTH      PTCLDY    35  33  93 NW5       30.33S WCI  31
O`NEILL        MOCLDY    38  37  94 NW8       30.32S WCI  33
THEDFORD       CLOUDY    37  34  89 NW6       30.34F WCI  33
BROKEN BOW     CLOUDY    40  34  79 NW12      30.31S WCI  33
ORD            LGT RAIN  40  38  93 NW7       30.30S
ALBION         CLOUDY    41  37  86 N7        30.30S
VALENTINE NWR    N/A     36  33  88 NW6         N/A  WCI  31
HALSEY           N/A     36  35  98 NW6         N/A  WCI  31
BUTTE            N/A     34  31  90 NW3         N/A
CHAMBERS         N/A     39  37  93 CALM        N/A
EWING            N/A     40  38  91 N6          N/A
$$

...OBSERVATIONS IN SOUTHWEST NEBRASKA AND FAR NORTHEAST COLORADO...

CITY           SKY/WX    TMP DP  RH WIND       PRES   REMARKS
WRAY           FAIR      32  30  93 NW8       30.38S WCI  25
HOLYOKE        FAIR      34  30  86 NW9       30.37F WCI  26
IMPERIAL       CLOUDY    36  31  82 NW10      30.36S WCI  28
OGALLALA       MOCLDY    36  32  85 NW9       30.36S WCI  29
NORTH PLATTE   CLOUDY    38  34  85 NW6       30.35S WCI  33
MCCOOK         CLOUDY    38  35  89 NW9       30.35S WCI  31
LEXINGTON      CLOUDY    40  35  85 NW12      30.33F WCI  32
STAPLETON        N/A     35  33  91 CALM        N/A
GOTHENBURG       N/A     38  34  86 NW7         N/A  WCI  33
CALLAWAY         N/A     37  35  94 N12         N/A  WCI  29
$$

...OBSERVATIONS IN CENTRAL LINCOLN COUNTY AREA...

CITY           SKY/WX    TMP DP  RH WIND       PRES   REMARKS
N.P. AIRPORT   CLOUDY    38  34  85 NW6       30.35S WCI  33
N.P. DOWNTOWN    N/A     37  34  89 CALM        N/A
N.P. SOUTHEAST   N/A     37  33  85 CALM        N/A
N.P. HILLCREST   N/A     37  34  89 NW3         N/A
$$

...OBSERVATIONS ACROSS THE ROCKIES AND WESTERN HIGH PLAINS...

CITY           SKY/WX    TMP DP  RH WIND       PRES   REMARKS
RAPID CITY     CLEAR     30  21  69 SW8       30.32F WCI  22
SCOTTSBLUFF    CLEAR     28  26  92 CALM      30.37F
CHEYENNE       CLEAR     25  23  92 W6        30.34F WCI  18
DENVER         PTCLDY    33  25  72 S5        30.36F WCI  29
BERTHOUD PASS  FAIR      12   1  62 N18G29    30.36S WCI  -5
MONARCH PASS   PTCLDY    21   3  45 W14       30.50R WCI   8
ASPEN          PTCLDY    27  18  69 S6        30.37S WCI  20
STEAMBOAT      FAIR      26  21  80 W3        30.40S
LARAMIE        PTCLDY    18  16  92 S5        30.35F WCI  11
CASPER         PTCLDY    27  22  81 SW10      30.34F WCI  17
$$

...OBSERVATIONS ACROSS THE NORTHERN PLAINS...

CITY           SKY/WX    TMP DP  RH WIND       PRES   REMARKS
BISMARCK       CLEAR     32  27  81 CALM      30.26F
FARGO          FAIR      31  28  89 S6        30.27F WCI  25
PIERRE         CLEAR     31  30  96 SW7       30.32F WCI  24
SIOUX FALLS    CLEAR     31  26  82 N3        30.28S
$$

...OBSERVATIONS ACROSS THE CENTRAL AND SOUTHERN PLAINS...

CITY           SKY/WX    TMP DP  RH WIND       PRES   REMARKS
OMAHA          CLOUDY    46  43  89 NW10      30.22R
GRAND ISLAND   CLOUDY    42  38  85 N17       30.30R
KANSAS CITY    CLOUDY    53  43  68 NW10      30.14R
WICHITA        RAIN      46  45  96 NW15      30.22R
DODGE CITY     MOCLDY    38  35  89 N13G22    30.28F WCI  30
OKLAHOMA CITY  CLOUDY    49  43  80 N23G31    30.18S
DALLAS         CLOUDY    67  56  67 SW5       30.04S
AMARILLO       MIX PCPN  37  35  92 N21G29    30.32F WCI  26
$$




USA.gov is the U.S. government's official web portal to all federal, state and local government web resources and services.